CST,Max TemperatureF,Mean TemperatureF,Min TemperatureF,Max Dew PointF,MeanDew PointF,Min DewpointF,Max Humidity, Mean Humidity, Min Humidity, Max Sea Level PressureIn, Mean Sea Level PressureIn, Min Sea Level PressureIn, Max VisibilityMiles, Mean VisibilityMiles, Min VisibilityMiles, Max Wind SpeedMPH, Mean Wind SpeedMPH, Max Gust SpeedMPH,PrecipitationIn, CloudCover, Events, WindDirDegrees
2013-11-1,59,47,35,41,38,34,93,75,39,29.98,29.81,29.61,10,10,3,21,8,32,0.00,3,Rain,285
2013-11-2,57,47,37,41,35,32,93,70,38,30.21,30.12,29.98,10,10,10,13,8,18,0.00,2,,304
2013-11-3,59,48,37,39,34,30,81,59,34,30.13,29.97,29.81,10,10,10,31,13,43,0.00,0,,154
2013-11-4,59,50,41,45,41,37,87,67,54,30.14,29.97,29.83,10,10,10,17,12,24,0.00,7,,162
2013-11-5,59,48,37,57,46,36,100,90,71,30.14,29.97,29.79,10,6,1,20,10,26,0.00,8,Rain,71
2013-11-6,44,37,30,36,33,28,93,82,61,30.30,30.20,30.01,10,10,4,17,10,26,0.00,7,,302
2013-11-7,50,38,26,34,27,19,100,74,30,30.40,30.35,30.29,10,10,10,15,4,22,0.00,0,,278
2013-11-8,68,47,26,36,31,25,93,53,24,30.32,29.99,29.77,10,10,10,32,11,44,0.00,0,,184
2013-11-9,60,46,33,36,33,28,87,60,34,30.35,30.14,29.94,10,10,7,16,5,23,0.00,0,,295
2013-11-10,55,40,26,36,29,25,93,63,33,30.44,30.33,30.18,10,10,10,13,5,16,0.00,2,,165
2013-11-11,48,34,19,45,27,12,100,73,55,30.76,30.39,30.13,10,10,9,25,11,33,0.00,4,,359
2013-11-12,32,22,12,12,9,5,86,64,32,30.91,30.78,30.61,10,10,10,12,6,16,0.00,0,,305
2013-11-13,51,35,19,23,18,10,74,51,33,30.63,30.32,30.06,10,10,10,24,11,30,0.00,0,,191
2013-11-14,55,42,30,30,25,19,87,55,33,30.05,29.96,29.91,10,10,9,16,9,21,0.00,0,,197
2013-11-15,57,40,24,43,33,23,100,73,41,29.93,29.82,29.67,10,10,9,18,4,23,0.00,0,,159
2013-11-16,71,56,42,55,45,34,93,70,33,29.66,29.44,29.33,10,10,9,31,12,39,0.00,4,,178
2013-11-17,60,48,37,50,39,34,93,69,39,30.07,29.62,29.27,10,10,7,22,9,33,0.00,4,Rain,331
2013-11-18,57,42,28,32,28,25,93,69,31,30.28,30.20,30.08,10,10,10,13,6,16,0.00,0,,231
2013-11-19,62,47,32,30,26,21,75,47,22,30.23,30.07,29.93,10,10,10,29,12,39,0.00,3,,158
2013-11-20,53,45,37,37,34,27,93,67,40,29.96,29.89,29.81,10,10,10,24,13,32,0.00,1,,143
2013-11-21,39,31,23,36,29,21,100,90,80,30.53,30.24,29.96,10,7,2,21,10,30,0.00,5,Rain-Snow,355
2013-11-22,24,20,15,19,15,12,93,79,64,30.71,30.63,30.54,10,10,10,17,10,25,0.00,1,Rain,334
2013-11-23,21,14,8,14,8,5,93,71,54,30.88,30.79,30.63,10,10,10,17,8,24,0.00,0,,3
2013-11-24,28,18,8,16,11,5,92,70,51,30.78,30.54,30.27,10,10,10,16,7,22,0.00,1,,180
2013-11-25,39,32,26,28,22,16,86,69,59,30.26,30.18,30.14,10,10,10,16,10,21,0.00,4,,230
2013-11-26,33,26,19,25,16,7,93,66,40,30.43,30.32,30.19,10,10,10,26,9,34,0.00,2,,327
2013-11-27,32,21,10,18,11,5,85,63,38,30.44,30.29,30.08,10,10,10,16,7,21,0.00,0,,209
2013-11-28,33,24,14,19,17,10,93,70,48,30.51,30.33,30.08,10,10,10,18,8,25,0.00,0,,320
2013-11-29,46,29,12,28,21,10,93,71,46,30.52,30.36,30.20,10,10,10,16,6,23,0.00,0,,136
2013-11-30,53,38,23,32,26,19,93,68,44,30.19,30.12,30.07,10,9,5,8,2,,0.00,0,,207